LMG400 FNLU-FAWK

Flight info

Callsign LMG400
Flight time N/A
Altitude 31000
Route VNA UT942 UTVIN UM998 GBV UL435 UTRUK
Aircraft A400/M-SDE2E3FGRY/LB1D1G1

Departure

Time 2026-04-24 13:44
Airport Quatro de Fevereiro International Airport (FNLU)

Arrival

Time N/A
Airport Waterkloof Air Force Base (FAWK)
Time Latitude Longitude Altitude Speed Heading
2026-04-24 13:14 -8.85115 13.23263 253 ft 0 kts 159°
2026-04-24 13:30 -8.85108 13.23260 253 ft 2 kts 159°
2026-04-24 13:30 -8.85093 13.23254 253 ft 2 kts 159°
2026-04-24 13:30 -8.85078 13.23248 253 ft 2 kts 159°
2026-04-24 13:31 -8.85063 13.23242 253 ft 2 kts 159°
2026-04-24 13:31 -8.85048 13.23237 253 ft 2 kts 159°
2026-04-24 13:31 -8.85033 13.23231 253 ft 2 kts 159°
2026-04-24 13:31 -8.85027 13.23228 252 ft 0 kts 159°
2026-04-24 13:32 -8.85019 13.23225 252 ft 2 kts 159°
2026-04-24 13:32 -8.85011 13.23222 252 ft 0 kts 159°
2026-04-24 13:32 -8.85001 13.23218 253 ft 1 kts 159°
2026-04-24 13:33 -8.85000 13.23218 252 ft 0 kts 159°
2026-04-24 13:34 -8.84994 13.23216 252 ft 1 kts 159°
2026-04-24 13:34 -8.84998 13.23217 252 ft 2 kts 159°
2026-04-24 13:34 -8.84992 13.23215 252 ft 1 kts 159°
2026-04-24 13:35 -8.84987 13.23213 252 ft 0 kts 159°
2026-04-24 13:35 -8.84982 13.23211 252 ft 0 kts 159°
2026-04-24 13:36 -8.84981 13.23210 252 ft 2 kts 159°
2026-04-24 13:36 -8.84977 13.23209 252 ft 0 kts 159°
2026-04-24 13:36 -8.84975 13.23208 252 ft 0 kts 159°
2026-04-24 13:39 -8.84973 13.23207 252 ft 2 kts 159°
2026-04-24 13:40 -8.84975 13.23208 252 ft 0 kts 159°
2026-04-24 13:40 -8.84985 13.23212 252 ft 8 kts 158°
2026-04-24 13:41 -8.85019 13.23259 252 ft 9 kts 90°
2026-04-24 13:41 -8.84998 13.23314 252 ft 7 kts 66°
2026-04-24 13:41 -8.84977 13.23372 251 ft 11 kts 70°
2026-04-24 13:41 -8.84948 13.23451 251 ft 13 kts 81°
2026-04-24 13:42 -8.85002 13.23511 250 ft 12 kts 146°
2026-04-24 13:42 -8.85074 13.23549 250 ft 12 kts 155°
2026-04-24 13:42 -8.85143 13.23586 249 ft 11 kts 141°
2026-04-24 13:42 -8.85197 13.23640 249 ft 11 kts 134°
2026-04-24 13:43 -8.85254 13.23688 249 ft 11 kts 143°
2026-04-24 13:43 -8.85310 13.23739 249 ft 11 kts 137°
2026-04-24 13:43 -8.85370 13.23791 249 ft 11 kts 148°
2026-04-24 13:43 -8.85434 13.23779 249 ft 9 kts 223°
2026-04-24 13:44 -8.85511 13.23699 250 ft 36 kts 226°
2026-04-24 13:44 -8.85911 13.23273 251 ft 129 kts 227°
2026-04-24 13:44 -8.86654 13.22484 418 ft 173 kts 227°
2026-04-24 13:44 -8.87484 13.21587 1164 ft 174 kts 225°
2026-04-24 13:45 -8.88351 13.20718 2095 ft 177 kts 214°
2026-04-24 13:45 -8.89596 13.20408 2534 ft 207 kts 171°
2026-04-24 13:45 -8.90975 13.21081 2840 ft 239 kts 143°
2026-04-24 13:45 -8.92404 13.22090 3366 ft 258 kts 148°
2026-04-24 13:46 -8.93967 13.23034 4094 ft 264 kts 155°
2026-04-24 13:46 -8.95775 13.23415 4884 ft 270 kts 179°
2026-04-24 13:46 -8.97661 13.23235 5650 ft 276 kts 189°
2026-04-24 13:46 -8.99536 13.22751 6431 ft 281 kts 192°
2026-04-24 13:47 -9.01465 13.22373 7185 ft 285 kts 188°
2026-04-24 13:47 -9.03442 13.22053 7958 ft 288 kts 187°
2026-04-24 13:47 -9.05437 13.21764 8719 ft 292 kts 184°
2026-04-24 13:47 -9.07477 13.21592 9479 ft 296 kts 182°
2026-04-24 13:48 -9.09541 13.21674 10117 ft 300 kts 165°
2026-04-24 13:48 -9.11466 13.22471 10636 ft 307 kts 150°
2026-04-24 13:48 -9.13439 13.23367 11262 ft 312 kts 159°
2026-04-24 13:48 -9.15522 13.24041 11915 ft 316 kts 162°
2026-04-24 13:49 -9.17640 13.24677 12572 ft 318 kts 162°
2026-04-24 13:49 -9.19765 13.25312 13253 ft 321 kts 162°
2026-04-24 13:49 -9.21921 13.25959 13894 ft 323 kts 162°
2026-04-24 13:49 -9.24084 13.26612 14469 ft 326 kts 162°
2026-04-24 13:50 -9.26261 13.27274 15041 ft 329 kts 162°
2026-04-24 13:50 -9.28464 13.27947 15610 ft 332 kts 162°
2026-04-24 13:50 -9.30683 13.28630 16179 ft 335 kts 162°
2026-04-24 13:50 -9.32897 13.29317 16745 ft 338 kts 162°
2026-04-24 13:51 -9.35147 13.30018 17319 ft 341 kts 162°
2026-04-24 13:51 -9.37433 13.30735 17895 ft 344 kts 162°
2026-04-24 13:51 -9.39731 13.31460 18417 ft 347 kts 162°
2026-04-24 13:51 -9.42041 13.32192 18904 ft 349 kts 162°
2026-04-24 13:52 -9.43584 13.32681 19230 ft 351 kts 162°
2026-04-24 13:52 -9.46722 13.33678 19876 ft 354 kts 162°
2026-04-24 13:52 -9.49022 13.34603 20345 ft 357 kts 158°
2026-04-24 13:52 -9.51366 13.35484 20732 ft 363 kts 160°
2026-04-24 13:53 -9.53786 13.36341 20915 ft 373 kts 160°
2026-04-24 13:53 -9.56238 13.37195 21087 ft 381 kts 161°
2026-04-24 13:53 -9.57939 13.37788 21255 ft 384 kts 160°
2026-04-24 13:53 -9.61303 13.38977 21656 ft 388 kts 160°
2026-04-24 13:54 -9.63856 13.39892 21936 ft 390 kts 160°
2026-04-24 13:54 -9.66418 13.40818 22223 ft 392 kts 160°
2026-04-24 13:54 -9.68156 13.41449 22406 ft 393 kts 160°
2026-04-24 13:54 -9.70712 13.42379 22675 ft 395 kts 160°
2026-04-24 13:55 -9.74180 13.43643 23014 ft 397 kts 160°
2026-04-24 13:55 -9.75908 13.44273 23178 ft 398 kts 160°
2026-04-24 13:55 -9.78523 13.45226 23417 ft 399 kts 160°
2026-04-24 13:55 -9.81998 13.46493 23683 ft 401 kts 160°
2026-04-24 13:56 -9.83773 13.47140 23810 ft 402 kts 160°
2026-04-24 13:56 -9.86410 13.48100 23987 ft 403 kts 160°
2026-04-24 13:56 -9.89053 13.49063 24162 ft 404 kts 160°
2026-04-24 13:56 -9.91707 13.50030 24328 ft 405 kts 160°
2026-04-24 13:57 -9.94322 13.50983 24576 ft 403 kts 160°
2026-04-24 13:57 -9.96951 13.51941 24956 ft 399 kts 160°
2026-04-24 13:57 -9.99567 13.52894 25238 ft 398 kts 160°
2026-04-24 13:57 -10.02172 13.53844 25466 ft 398 kts 160°
2026-04-24 13:58 -10.04781 13.54795 25714 ft 397 kts 160°
2026-04-24 13:58 -10.07361 13.55736 26145 ft 392 kts 160°
2026-04-24 13:58 -10.09924 13.56671 26491 ft 390 kts 160°
2026-04-24 13:58 -10.12485 13.57606 26753 ft 391 kts 160°
2026-04-24 13:59 -10.15051 13.58542 26995 ft 392 kts 160°
2026-04-24 13:59 -10.17618 13.59479 27222 ft 393 kts 160°
2026-04-24 13:59 -10.20166 13.60409 27429 ft 394 kts 160°
2026-04-24 13:59 -10.22751 13.61353 27654 ft 395 kts 160°
2026-04-24 14:00 -10.25347 13.62301 27843 ft 397 kts 160°
2026-04-24 14:00 -10.27947 13.63251 28042 ft 398 kts 160°
2026-04-24 14:00 -10.30563 13.64206 28233 ft 399 kts 160°
2026-04-24 14:00 -10.33176 13.65161 28411 ft 400 kts 160°
2026-04-24 14:01 -10.35796 13.66118 28609 ft 401 kts 160°
2026-04-24 14:01 -10.38425 13.67080 28766 ft 402 kts 160°
2026-04-24 14:01 -10.41058 13.68042 28930 ft 403 kts 160°
2026-04-24 14:01 -10.43701 13.69008 29081 ft 404 kts 160°
2026-04-24 14:02 -10.46354 13.69978 29224 ft 405 kts 160°
2026-04-24 14:02 -10.49002 13.70947 29373 ft 406 kts 160°
2026-04-24 14:02 -10.51668 13.71922 29518 ft 406 kts 160°
2026-04-24 14:02 -10.54322 13.72893 29779 ft 404 kts 160°
2026-04-24 14:03 -10.56965 13.73860 29997 ft 403 kts 160°
2026-04-24 14:03 -10.59571 13.74814 30139 ft 403 kts 160°
2026-04-24 14:03 -10.62214 13.75782 30259 ft 404 kts 160°
2026-04-24 14:03 -10.64867 13.76754 30417 ft 405 kts 160°
2026-04-24 14:04 -10.67521 13.77726 30584 ft 405 kts 160°
2026-04-24 14:04 -10.70177 13.78698 30746 ft 404 kts 160°
2026-04-24 14:04 -10.75473 13.80697 30827 ft 410 kts 155°
2026-04-24 14:05 -10.80243 13.83808 30827 ft 411 kts 142°
2026-04-24 14:05 -10.84657 13.87513 30831 ft 412 kts 140°
2026-04-24 14:06 -10.88998 13.91331 30832 ft 412 kts 139°
2026-04-24 14:06 -10.93342 13.95149 30838 ft 413 kts 140°
2026-04-24 14:07 -10.97709 13.98959 30841 ft 413 kts 140°
2026-04-24 14:07 -11.02080 14.02760 30841 ft 413 kts 140°
2026-04-24 14:08 -11.06452 14.06560 30847 ft 414 kts 140°
2026-04-24 14:08 -11.10812 14.10353 30846 ft 414 kts 140°
2026-04-24 14:09 -11.15184 14.14159 30858 ft 414 kts 140°
2026-04-24 14:09 -11.19556 14.17965 30864 ft 414 kts 140°
2026-04-24 14:10 -11.23942 14.21787 30863 ft 414 kts 140°
2026-04-24 14:10 -11.28315 14.25598 30871 ft 414 kts 140°
2026-04-24 14:11 -11.32691 14.29413 30875 ft 414 kts 140°
2026-04-24 14:12 -11.39228 14.35116 30881 ft 413 kts 140°
2026-04-24 14:12 -11.43593 14.38926 30882 ft 413 kts 140°
2026-04-24 14:13 -11.47958 14.42738 30887 ft 413 kts 140°
2026-04-24 14:13 -11.52332 14.46559 30889 ft 413 kts 140°
2026-04-24 14:14 -11.56697 14.50373 30894 ft 413 kts 140°
2026-04-24 14:14 -11.63215 14.56073 30886 ft 412 kts 140°
2026-04-24 14:15 -11.67574 14.59886 30888 ft 413 kts 140°
2026-04-24 14:15 -11.71943 14.63710 30885 ft 413 kts 140°
2026-04-24 14:16 -11.76309 14.67532 30888 ft 413 kts 140°
2026-04-24 14:17 -11.82866 14.73277 30887 ft 414 kts 140°
2026-04-24 14:17 -11.89433 14.79034 30884 ft 415 kts 140°
2026-04-24 14:18 -11.93786 14.82853 30884 ft 415 kts 140°
2026-04-24 14:18 -11.98168 14.86698 30886 ft 416 kts 140°
2026-04-24 14:19 -12.02568 14.90561 30885 ft 416 kts 140°
2026-04-24 14:19 -12.06969 14.94426 30887 ft 417 kts 140°
2026-04-24 14:20 -12.11376 14.98298 30884 ft 417 kts 140°
2026-04-24 14:20 -12.15757 15.02149 30888 ft 418 kts 140°
2026-04-24 14:21 -12.20169 15.06030 30887 ft 418 kts 140°
2026-04-24 14:21 -12.24577 15.09909 30888 ft 418 kts 140°
2026-04-24 14:22 -12.28982 15.13787 30892 ft 418 kts 140°
2026-04-24 14:23 -12.35574 15.19593 30894 ft 419 kts 140°
2026-04-24 14:23 -12.39984 15.23480 30896 ft 419 kts 140°
2026-04-24 14:24 -12.44401 15.27374 30897 ft 419 kts 140°
2026-04-24 14:24 -12.48826 15.31277 30893 ft 419 kts 141°
2026-04-24 14:25 -12.52496 15.34517 30903 ft 420 kts 141°
2026-04-24 14:25 -12.57664 15.39079 30902 ft 420 kts 141°
2026-04-24 14:26 -12.62064 15.42966 30903 ft 420 kts 141°
2026-04-24 14:26 -12.66495 15.46882 30950 ft 421 kts 141°
2026-04-24 14:27 -12.70929 15.50803 30993 ft 421 kts 141°
2026-04-24 14:27 -12.75369 15.54731 31035 ft 421 kts 141°
2026-04-24 14:28 -12.79799 15.58652 31072 ft 422 kts 141°
2026-04-24 14:28 -12.84251 15.62594 31101 ft 422 kts 141°
2026-04-24 14:29 -12.88695 15.66531 31106 ft 422 kts 141°
2026-04-24 14:29 -12.93115 15.70449 31088 ft 423 kts 141°
2026-04-24 14:30 -12.96842 15.73754 31066 ft 423 kts 141°
2026-04-24 14:30 -13.02018 15.78346 31022 ft 423 kts 141°
2026-04-24 14:31 -13.06480 15.82307 30979 ft 423 kts 141°
2026-04-24 14:31 -13.10905 15.86237 30939 ft 423 kts 141°
2026-04-24 14:32 -13.15356 15.90191 30915 ft 424 kts 141°
2026-04-24 14:32 -13.19817 15.94158 30919 ft 424 kts 141°
2026-04-24 14:33 -13.24281 15.98128 30918 ft 424 kts 141°
2026-04-24 14:33 -13.28736 16.02092 30916 ft 424 kts 141°
2026-04-24 14:34 -13.33177 16.06047 30919 ft 424 kts 141°
2026-04-24 14:34 -13.37642 16.10024 30917 ft 424 kts 141°
2026-04-24 14:35 -13.42096 16.13994 30918 ft 424 kts 141°
2026-04-24 14:35 -13.46560 16.17974 30914 ft 424 kts 141°
2026-04-24 14:36 -13.51010 16.21944 30921 ft 424 kts 141°
2026-04-24 14:36 -13.55467 16.25923 30917 ft 424 kts 141°
2026-04-24 14:37 -13.59919 16.29899 30916 ft 424 kts 141°
2026-04-24 14:37 -13.64370 16.33875 30916 ft 424 kts 141°
2026-04-24 14:38 -13.68821 16.37855 30918 ft 424 kts 141°
2026-04-24 14:38 -13.73241 16.41809 30914 ft 424 kts 141°
2026-04-24 14:39 -13.77668 16.45793 30914 ft 423 kts 141°
2026-04-24 14:39 -13.82085 16.49821 30914 ft 423 kts 141°
2026-04-24 14:40 -13.86489 16.53849 30912 ft 423 kts 141°
2026-04-24 14:40 -13.90893 16.57875 30911 ft 423 kts 141°
2026-04-24 14:41 -13.95296 16.61898 30910 ft 423 kts 141°
2026-04-24 14:41 -13.99670 16.65895 30909 ft 423 kts 141°
2026-04-24 14:42 -14.03332 16.69244 30909 ft 423 kts 141°
2026-04-24 14:42 -14.08482 16.73956 30905 ft 423 kts 141°
2026-04-24 14:43 -14.12886 16.77988 30907 ft 423 kts 141°
2026-04-24 14:43 -14.16542 16.81337 30907 ft 423 kts 141°
2026-04-24 14:44 -14.20940 16.85367 30902 ft 423 kts 141°
2026-04-24 14:44 -14.25335 16.89396 30902 ft 423 kts 141°
2026-04-24 14:45 -14.29725 16.93424 30905 ft 422 kts 141°
2026-04-24 14:45 -14.34092 16.97432 30904 ft 423 kts 141°
2026-04-24 14:46 -14.38483 17.01465 30906 ft 423 kts 141°
2026-04-24 14:46 -14.42879 17.05504 30904 ft 423 kts 141°
2026-04-24 14:47 -14.47272 17.09543 30902 ft 423 kts 141°
2026-04-24 14:47 -14.51648 17.13568 30904 ft 423 kts 141°
2026-04-24 14:48 -14.56060 17.17629 30905 ft 423 kts 141°
2026-04-24 14:48 -14.60460 17.21681 30905 ft 423 kts 141°
2026-04-24 14:49 -14.64858 17.25734 30904 ft 424 kts 142°
2026-04-24 14:49 -14.69252 17.29785 30904 ft 424 kts 142°
2026-04-24 14:50 -14.73652 17.33843 30903 ft 424 kts 142°
2026-04-24 14:50 -14.78056 17.37908 30903 ft 424 kts 142°
2026-04-24 14:51 -14.82455 17.41971 30903 ft 425 kts 142°
2026-04-24 14:51 -14.86850 17.46032 30903 ft 425 kts 142°
2026-04-24 14:52 -14.91242 17.50092 30901 ft 425 kts 142°
2026-04-24 14:52 -14.95651 17.54172 30896 ft 425 kts 142°
2026-04-24 14:53 -15.00070 17.58261 30897 ft 426 kts 142°
2026-04-24 14:53 -15.04485 17.62351 30900 ft 426 kts 142°
2026-04-24 14:54 -15.08905 17.66448 30901 ft 426 kts 142°
2026-04-24 14:54 -15.13326 17.70547 30901 ft 427 kts 142°
2026-04-24 14:55 -15.17006 17.73962 30898 ft 427 kts 142°
2026-04-24 14:55 -15.22173 17.78759 30899 ft 427 kts 142°
2026-04-24 14:56 -15.26573 17.82846 30900 ft 427 kts 142°
2026-04-24 14:56 -15.31009 17.86969 30897 ft 428 kts 142°
2026-04-24 14:57 -15.35431 17.91082 30899 ft 428 kts 142°
2026-04-24 14:57 -15.39873 17.95214 30896 ft 428 kts 142°
2026-04-24 14:58 -15.44269 17.99308 30899 ft 428 kts 142°
2026-04-24 14:58 -15.48703 18.03439 30898 ft 428 kts 142°
2026-04-24 14:59 -15.53137 18.07572 30896 ft 428 kts 142°
2026-04-24 14:59 -15.57561 18.11698 30898 ft 428 kts 142°
2026-04-24 15:00 -15.61993 18.15835 30899 ft 428 kts 142°
2026-04-24 15:00 -15.66421 18.19971 30892 ft 428 kts 142°
2026-04-24 15:01 -15.70822 18.24084 30900 ft 428 kts 142°
2026-04-24 15:01 -15.75260 18.28233 30907 ft 428 kts 142°
2026-04-24 15:02 -15.79690 18.32378 30897 ft 428 kts 142°
2026-04-24 15:02 -15.84118 18.36523 30898 ft 429 kts 142°
2026-04-24 15:03 -15.88523 18.40649 30899 ft 429 kts 142°
2026-04-24 15:03 -15.92957 18.44806 30900 ft 429 kts 142°
2026-04-24 15:04 -15.97382 18.48956 30904 ft 429 kts 142°
2026-04-24 15:04 -16.01816 18.53117 30905 ft 429 kts 142°
2026-04-24 15:05 -16.06254 18.57285 30905 ft 429 kts 142°
2026-04-24 15:05 -16.10654 18.61420 30904 ft 429 kts 142°
2026-04-24 15:06 -16.15091 18.65591 30907 ft 430 kts 142°
2026-04-24 15:06 -16.19526 18.69764 30909 ft 430 kts 142°
2026-04-24 15:07 -16.23971 18.73948 30906 ft 429 kts 142°
2026-04-24 15:07 -16.28362 18.78085 30910 ft 428 kts 142°
2026-04-24 15:08 -16.32785 18.82254 30919 ft 429 kts 142°
2026-04-24 15:08 -16.37213 18.86429 30915 ft 429 kts 142°
2026-04-24 15:09 -16.41633 18.90602 30917 ft 429 kts 142°
2026-04-24 15:09 -16.46055 18.94777 30916 ft 429 kts 142°
2026-04-24 15:10 -16.50460 18.98941 30919 ft 430 kts 142°
2026-04-24 15:10 -16.54889 19.03129 30925 ft 430 kts 142°
2026-04-24 15:11 -16.59324 19.07325 30927 ft 430 kts 142°
2026-04-24 15:11 -16.63765 19.11531 30929 ft 431 kts 142°
2026-04-24 15:12 -16.68195 19.15729 30928 ft 431 kts 142°
2026-04-24 15:12 -16.74859 19.22048 30929 ft 431 kts 142°
2026-04-24 15:13 -16.79298 19.26261 30932 ft 431 kts 142°
2026-04-24 15:13 -16.83715 19.30455 30932 ft 432 kts 142°
2026-04-24 15:14 -16.88160 19.34679 30931 ft 432 kts 142°
2026-04-24 15:14 -16.92611 19.38913 30936 ft 433 kts 142°
2026-04-24 15:15 -16.97059 19.43145 30938 ft 433 kts 142°
2026-04-24 15:15 -17.01521 19.47395 30935 ft 433 kts 142°
2026-04-24 15:16 -17.05989 19.51652 30938 ft 434 kts 142°
2026-04-24 15:16 -17.10449 19.55904 30939 ft 434 kts 142°
2026-04-24 15:17 -17.14907 19.60159 30941 ft 434 kts 142°
2026-04-24 15:17 -17.19352 19.64402 30943 ft 435 kts 142°
2026-04-24 15:18 -17.23819 19.68670 30940 ft 435 kts 142°
2026-04-24 15:18 -17.28295 19.72950 30944 ft 436 kts 142°
2026-04-24 15:19 -17.32772 19.77233 30946 ft 436 kts 142°
2026-04-24 15:19 -17.37256 19.81526 30949 ft 436 kts 142°
2026-04-24 15:20 -17.41735 19.85817 30955 ft 436 kts 142°
2026-04-24 15:20 -17.46193 19.90091 30953 ft 437 kts 142°
2026-04-24 15:21 -17.50676 19.94391 30953 ft 437 kts 142°
2026-04-24 15:21 -17.55173 19.98708 30958 ft 437 kts 142°
2026-04-24 15:22 -17.59626 20.02987 30958 ft 438 kts 142°
2026-04-24 15:23 -17.66371 20.09472 30964 ft 438 kts 142°
2026-04-24 15:23 -17.73118 20.15968 30971 ft 439 kts 142°
2026-04-24 15:25 -17.83613 20.26085 30970 ft 440 kts 142°
2026-04-24 15:26 -17.96043 20.37083 30974 ft 438 kts 147°
2026-04-24 15:27 -18.10439 20.48973 30981 ft 439 kts 147°
2026-04-24 15:29 -18.24795 20.60963 30989 ft 440 kts 147°
2026-04-24 15:31 -18.40800 20.74355 30987 ft 441 kts 147°
2026-04-24 15:33 -18.60015 20.90476 31002 ft 442 kts 147°
2026-04-24 15:34 -18.72026 21.00578 31005 ft 443 kts 147°
2026-04-24 15:35 -18.84080 21.10740 31009 ft 443 kts 147°
2026-04-24 15:36 -18.88902 21.14811 31006 ft 444 kts 147°
2026-04-24 15:36 -18.96140 21.20927 31012 ft 444 kts 147°
2026-04-24 15:37 -19.00966 21.25009 31017 ft 445 kts 147°
2026-04-24 15:37 -19.05796 21.29097 31018 ft 445 kts 147°
2026-04-24 15:38 -19.10602 21.33169 31019 ft 445 kts 147°
2026-04-24 15:38 -19.15441 21.37272 31019 ft 446 kts 147°
2026-04-24 15:39 -19.20279 21.41377 31019 ft 446 kts 146°
2026-04-24 15:39 -19.25127 21.45493 31021 ft 447 kts 146°
2026-04-24 15:40 -19.29977 21.49615 31023 ft 447 kts 146°
2026-04-24 15:40 -19.34822 21.53736 31026 ft 447 kts 146°
2026-04-24 15:41 -19.39674 21.57865 31026 ft 447 kts 146°
2026-04-24 15:41 -19.44527 21.61999 31029 ft 447 kts 146°
2026-04-24 15:42 -19.49367 21.66125 31026 ft 447 kts 146°
2026-04-24 15:42 -19.54185 21.70254 31030 ft 447 kts 146°
2026-04-24 15:43 -19.59016 21.74411 31028 ft 447 kts 146°
2026-04-24 15:43 -19.63848 21.78573 31027 ft 447 kts 146°
2026-04-24 15:44 -19.68662 21.82721 31029 ft 447 kts 146°
2026-04-24 15:44 -19.73498 21.86889 31032 ft 447 kts 146°
2026-04-24 15:45 -19.78314 21.91003 31030 ft 447 kts 146°
2026-04-24 15:45 -19.83180 21.95127 31035 ft 447 kts 146°
2026-04-24 15:46 -19.88048 21.99253 31035 ft 448 kts 146°
2026-04-24 15:46 -19.92921 22.03392 31034 ft 448 kts 146°
2026-04-24 15:47 -19.97794 22.07538 31035 ft 449 kts 146°
2026-04-24 15:47 -20.02671 22.11692 31038 ft 449 kts 146°
2026-04-24 15:48 -20.07517 22.15821 31042 ft 449 kts 146°
2026-04-24 15:48 -20.12398 22.19984 31043 ft 449 kts 146°
2026-04-24 15:49 -20.17279 22.24150 31045 ft 450 kts 146°
2026-04-24 15:49 -20.22166 22.28325 31045 ft 450 kts 146°
2026-04-24 15:50 -20.27047 22.32499 31045 ft 450 kts 145°
2026-04-24 15:50 -20.31935 22.36681 31045 ft 450 kts 146°
2026-04-24 15:51 -20.36822 22.40867 31050 ft 451 kts 146°
2026-04-24 15:51 -20.41707 22.45052 31053 ft 451 kts 146°
2026-04-24 15:52 -20.46574 22.49218 31053 ft 451 kts 146°
2026-04-24 15:52 -20.51475 22.53416 31055 ft 452 kts 146°
2026-04-24 15:53 -20.56394 22.57632 31059 ft 453 kts 146°
2026-04-24 15:53 -20.61311 22.61852 31061 ft 453 kts 146°
2026-04-24 15:54 -20.66197 22.66049 31059 ft 454 kts 146°
2026-04-24 15:54 -20.71117 22.70279 31063 ft 454 kts 146°
2026-04-24 15:55 -20.76043 22.74517 31069 ft 454 kts 146°
2026-04-24 15:55 -20.80963 22.78753 31071 ft 454 kts 146°
2026-04-24 15:56 -20.85879 22.83003 31073 ft 454 kts 145°
2026-04-24 15:56 -20.90751 22.87248 31076 ft 455 kts 145°
2026-04-24 15:57 -20.95660 22.91536 31076 ft 456 kts 145°
2026-04-24 15:57 -21.00571 22.95828 31076 ft 455 kts 145°
2026-04-24 15:58 -21.05478 23.00117 31079 ft 455 kts 145°
2026-04-24 15:58 -21.10389 23.04412 31079 ft 455 kts 145°
2026-04-24 15:59 -21.15292 23.08703 31080 ft 455 kts 145°
2026-04-24 15:59 -21.20163 23.12971 31088 ft 455 kts 145°
2026-04-24 16:00 -21.25061 23.17266 31086 ft 455 kts 145°
2026-04-24 16:00 -21.29966 23.21570 31091 ft 455 kts 145°
2026-04-24 16:01 -21.34875 23.25880 31092 ft 455 kts 145°
2026-04-24 16:01 -21.39740 23.30155 31083 ft 455 kts 145°
2026-04-24 16:02 -21.44630 23.34456 31082 ft 454 kts 145°
2026-04-24 16:02 -21.49513 23.38754 31087 ft 454 kts 145°
2026-04-24 16:03 -21.54406 23.43065 31091 ft 454 kts 145°
2026-04-24 16:03 -21.59292 23.47373 31095 ft 454 kts 145°
2026-04-24 16:04 -21.64166 23.51676 31095 ft 454 kts 145°
2026-04-24 16:04 -21.69046 23.55987 31096 ft 453 kts 145°
2026-04-24 16:05 -21.76356 23.62452 31099 ft 453 kts 145°
2026-04-24 16:06 -21.83666 23.68926 31094 ft 453 kts 145°
2026-04-24 16:07 -21.90923 23.75362 31095 ft 453 kts 145°
2026-04-24 16:07 -21.98237 23.81857 31099 ft 454 kts 144°
2026-04-24 16:08 -22.05536 23.88349 31100 ft 454 kts 144°
2026-04-24 16:09 -22.12845 23.94857 31102 ft 454 kts 144°
2026-04-24 16:09 -22.17715 23.99199 31100 ft 455 kts 144°
2026-04-24 16:11 -22.29900 24.10081 31106 ft 455 kts 144°
2026-04-24 16:11 -22.34796 24.14461 31106 ft 455 kts 144°
2026-04-24 16:12 -22.42086 24.20989 31112 ft 456 kts 144°
2026-04-24 16:13 -22.49412 24.27559 31111 ft 456 kts 144°
2026-04-24 16:14 -22.59197 24.36349 31114 ft 457 kts 144°
2026-04-24 16:14 -22.66512 24.42931 31117 ft 458 kts 144°
2026-04-24 16:15 -22.73863 24.49554 31124 ft 458 kts 144°
2026-04-24 16:16 -22.81205 24.56201 31127 ft 459 kts 144°
2026-04-24 16:17 -22.93458 24.67327 31135 ft 459 kts 144°
2026-04-24 16:18 -23.03232 24.76219 31143 ft 460 kts 143°
2026-04-24 16:19 -23.09762 24.82169 31154 ft 460 kts 143°
2026-04-24 16:20 -23.17126 24.88889 31154 ft 460 kts 143°
2026-04-24 16:20 -23.24485 24.95614 31162 ft 461 kts 143°
2026-04-24 16:21 -23.31853 25.02357 31170 ft 461 kts 143°
2026-04-24 16:22 -23.36731 25.06827 31171 ft 461 kts 143°
2026-04-24 16:22 -23.44091 25.13580 31180 ft 461 kts 143°
2026-04-24 16:23 -23.49004 25.18093 31184 ft 461 kts 143°
2026-04-24 16:24 -23.56354 25.24854 31192 ft 461 kts 143°
2026-04-24 16:24 -23.61290 25.29249 31197 ft 458 kts 150°
2026-04-24 16:25 -23.66836 25.32658 31192 ft 453 kts 158°
2026-04-24 16:25 -23.72429 25.35722 31196 ft 452 kts 159°
2026-04-24 16:26 -23.80911 25.40259 31205 ft 452 kts 159°
2026-04-24 16:27 -23.89391 25.44838 31211 ft 452 kts 159°
2026-04-24 16:27 -23.95029 25.47897 31213 ft 452 kts 159°
2026-04-24 16:28 -24.00628 25.50939 31217 ft 452 kts 159°
2026-04-24 16:28 -24.09075 25.55533 31220 ft 452 kts 158°
2026-04-24 16:29 -24.14707 25.58599 31226 ft 452 kts 158°
2026-04-24 16:30 -24.25926 25.64716 31227 ft 451 kts 158°
2026-04-24 16:30 -24.31562 25.67793 31231 ft 451 kts 158°
2026-04-24 16:31 -24.37182 25.70865 31234 ft 451 kts 158°
2026-04-24 16:31 -24.42802 25.73940 31240 ft 451 kts 158°
2026-04-24 16:32 -24.48420 25.77016 31239 ft 451 kts 158°
2026-04-24 16:32 -24.54029 25.80092 31236 ft 451 kts 158°
2026-04-24 16:33 -24.59284 25.83887 31238 ft 459 kts 139°
2026-04-24 16:33 -24.61365 25.86555 31240 ft 462 kts 126°
2026-04-24 16:33 -24.63144 25.89495 31240 ft 463 kts 123°
2026-04-24 16:34 -24.66427 25.95612 31242 ft 464 kts 120°
2026-04-24 16:34 -24.69594 26.01797 31243 ft 465 kts 120°
2026-04-24 16:35 -24.72832 26.07950 31245 ft 465 kts 122°
2026-04-24 16:35 -24.76219 26.13957 31251 ft 465 kts 123°
2026-04-24 16:36 -24.79664 26.19979 31255 ft 465 kts 123°
2026-04-24 16:36 -24.83098 26.26015 31259 ft 465 kts 123°
2026-04-24 16:37 -24.86522 26.32068 31259 ft 466 kts 123°
2026-04-24 16:37 -24.89946 26.38141 31263 ft 467 kts 123°
2026-04-24 16:38 -24.93371 26.44224 31269 ft 467 kts 123°
2026-04-24 16:38 -24.96799 26.50318 31270 ft 467 kts 123°
2026-04-24 16:39 -25.00197 26.56368 31272 ft 467 kts 123°
2026-04-24 16:39 -25.03600 26.62450 31276 ft 467 kts 122°
2026-04-24 16:40 -25.06929 26.68609 31276 ft 467 kts 121°
2026-04-24 16:40 -25.10216 26.74783 31277 ft 467 kts 121°
2026-04-24 16:41 -25.13508 26.80962 31281 ft 467 kts 121°
2026-04-24 16:41 -25.16805 26.87141 31282 ft 467 kts 121°
2026-04-24 16:42 -25.20102 26.93321 31284 ft 466 kts 121°
2026-04-24 16:42 -25.23374 26.99462 31284 ft 466 kts 121°
2026-04-24 16:43 -25.26662 27.05641 31287 ft 466 kts 121°
2026-04-24 16:43 -25.28307 27.08736 31096 ft 468 kts 122°
2026-04-24 16:43 -25.29956 27.11841 30865 ft 467 kts 121°
2026-04-24 16:44 -25.31595 27.14928 30630 ft 465 kts 121°
2026-04-24 16:44 -25.33232 27.18014 30397 ft 464 kts 121°
2026-04-24 16:44 -25.34864 27.21093 29897 ft 465 kts 121°
2026-04-24 16:44 -25.36496 27.24175 29062 ft 463 kts 121°
2026-04-24 16:45 -25.38106 27.27217 28488 ft 454 kts 121°
2026-04-24 16:45 -25.39684 27.30202 27845 ft 447 kts 121°
2026-04-24 16:45 -25.41221 27.33110 27234 ft 439 kts 121°
2026-04-24 16:45 -25.42751 27.36006 26628 ft 433 kts 121°
2026-04-24 16:46 -25.44259 27.38862 26035 ft 427 kts 121°
2026-04-24 16:46 -25.45752 27.41689 25433 ft 423 kts 121°
2026-04-24 16:46 -25.47227 27.44487 24855 ft 419 kts 121°
2026-04-24 16:46 -25.48684 27.47250 24279 ft 414 kts 121°
2026-04-24 16:47 -25.50130 27.49996 23683 ft 410 kts 121°
2026-04-24 16:47 -25.51560 27.52711 23062 ft 405 kts 121°
2026-04-24 16:47 -25.52971 27.55393 22499 ft 401 kts 121°
2026-04-24 16:47 -25.54366 27.58045 21950 ft 396 kts 121°
2026-04-24 16:48 -25.55743 27.60666 21401 ft 392 kts 121°
2026-04-24 16:48 -25.57098 27.63245 20864 ft 387 kts 121°
2026-04-24 16:48 -25.58444 27.65809 20322 ft 383 kts 121°
2026-04-24 16:48 -25.59780 27.68358 19792 ft 379 kts 121°
2026-04-24 16:49 -25.61095 27.70865 19286 ft 375 kts 121°
2026-04-24 16:49 -25.62384 27.73325 18989 ft 362 kts 121°
2026-04-24 16:49 -25.63630 27.75704 18656 ft 353 kts 121°
2026-04-24 16:49 -25.64857 27.78048 18186 ft 348 kts 121°
2026-04-24 16:50 -25.65658 27.79578 17830 ft 346 kts 121°
2026-04-24 16:50 -25.67344 27.82558 17177 ft 342 kts 130°
2026-04-24 16:50 -25.68914 27.84527 16666 ft 339 kts 134°
2026-04-24 16:50 -25.70723 27.86168 16177 ft 335 kts 152°
2026-04-24 16:51 -25.72822 27.87254 15703 ft 331 kts 159°
2026-04-24 16:51 -25.74947 27.88187 15349 ft 325 kts 160°
2026-04-24 16:51 -25.77012 27.89076 15195 ft 313 kts 160°
2026-04-24 16:51 -25.78998 27.89933 15070 ft 301 kts 160°
2026-04-24 16:52 -25.80925 27.90768 14970 ft 291 kts 160°
2026-04-24 16:52 -25.82782 27.91574 14852 ft 283 kts 160°
2026-04-24 16:52 -25.84604 27.92368 14630 ft 280 kts 160°
2026-04-24 16:52 -25.86420 27.93159 14372 ft 279 kts 160°
2026-04-24 16:53 -25.88224 27.93944 14113 ft 278 kts 160°
2026-04-24 16:53 -25.90014 27.94722 13843 ft 276 kts 160°
2026-04-24 16:53 -25.91780 27.95492 13567 ft 275 kts 160°
2026-04-24 16:53 -25.93481 27.96371 13271 ft 276 kts 144°
2026-04-24 16:54 -25.94746 27.97948 12959 ft 274 kts 116°
2026-04-24 16:54 -25.95491 27.99880 12679 ft 271 kts 110°
2026-04-24 16:54 -25.96180 28.01819 12322 ft 269 kts 110°
2026-04-24 16:54 -25.96858 28.03740 12125 ft 263 kts 110°
2026-04-24 16:55 -25.97516 28.05597 12020 ft 254 kts 110°
2026-04-24 16:55 -25.98160 28.07401 11912 ft 248 kts 110°
2026-04-24 16:55 -25.98789 28.09170 11723 ft 244 kts 110°
2026-04-24 16:55 -25.99414 28.10925 11466 ft 244 kts 110°
2026-04-24 16:56 -26.00037 28.12678 11267 ft 243 kts 110°
2026-04-24 16:56 -26.00446 28.14478 11063 ft 239 kts 89°
2026-04-24 16:56 -26.00372 28.16316 10859 ft 237 kts 81°
2026-04-24 16:56 -26.00191 28.18134 10619 ft 238 kts 80°
2026-04-24 16:57 -25.99991 28.19971 10160 ft 249 kts 80°
2026-04-24 16:57 -25.99765 28.21913 9732 ft 252 kts 76°
2026-04-24 16:57 -25.99149 28.23707 9400 ft 246 kts 54°
2026-04-24 16:57 -25.98007 28.25054 9093 ft 238 kts 29°
2026-04-24 16:58 -25.96484 28.25631 8797 ft 230 kts 359°
2026-04-24 16:58 -25.94951 28.25252 8491 ft 226 kts 335°
2026-04-24 16:58 -25.93559 28.24436 8167 ft 226 kts 331°
2026-04-24 16:58 -25.92107 28.23777 7804 ft 227 kts 345°
2026-04-24 16:59 -25.90556 28.23432 7454 ft 227 kts 350°
2026-04-24 16:59 -25.88991 28.23171 7097 ft 227 kts 351°
2026-04-24 16:59 -25.85979 28.22707 6412 ft 206 kts 352°
2026-04-24 17:00 -25.84637 28.22501 6224 ft 186 kts 352°
2026-04-24 17:00 -25.82210 28.22128 6233 ft 172 kts 352°
2026-04-24 17:00 -25.81020 28.21945 6272 ft 173 kts 352°
2026-04-24 17:01 -25.78722 28.21361 6269 ft 170 kts 325°
2026-04-24 17:01 -25.77855 28.20465 6274 ft 171 kts 313°
2026-04-24 17:02 -25.76584 28.18762 6458 ft 173 kts 310°
2026-04-24 17:02 -25.75725 28.17261 6484 ft 174 kts 283°
2026-04-24 17:02 -25.75919 28.15947 6506 ft 175 kts 241°
2026-04-24 17:02 -25.76861 28.15133 6504 ft 176 kts 197°
2026-04-24 17:03 -25.79213 28.15717 6501 ft 178 kts 153°
2026-04-24 17:03 -25.80404 28.16387 6694 ft 212 kts 153°
2026-04-24 17:03 -25.81832 28.17107 7257 ft 236 kts 162°
2026-04-24 17:04 -25.83432 28.17548 7752 ft 242 kts 169°
2026-04-24 17:04 -25.86778 28.17925 7993 ft 242 kts 179°
2026-04-24 17:04 -25.88461 28.17972 7998 ft 241 kts 180°
2026-04-24 17:05 -25.90139 28.18029 7995 ft 242 kts 178°
2026-04-24 17:05 -25.91818 28.18192 7937 ft 243 kts 175°
2026-04-24 17:05 -25.94767 28.19773 7549 ft 239 kts 126°
2026-04-24 17:06 -25.95349 28.21432 7319 ft 229 kts 87°
2026-04-24 17:06 -25.93687 28.23761 6862 ft 193 kts 13°
2026-04-24 17:06 -25.92819 28.23887 6704 ft 189 kts 358°
2026-04-24 17:07 -25.91529 28.23730 6461 ft 184 kts 351°
2026-04-24 17:07 -25.89910 28.23416 6152 ft 174 kts 350°
2026-04-24 17:07 -25.87618 28.22996 5697 ft 159 kts 355°
2026-04-24 17:08 -25.85809 28.22703 5132 ft 158 kts 351°
2026-04-24 17:08 -25.84760 28.22509 5149 ft 151 kts 353°
2026-04-24 17:08 -25.83737 28.22344 5109 ft 148 kts 352°
2026-04-24 17:09 -25.81681 28.22038 5209 ft 149 kts 353°
2026-04-24 17:09 -25.79485 28.21805 6686 ft 157 kts 355°
2026-04-24 17:10 -25.78391 28.21641 7429 ft 163 kts 351°
2026-04-24 17:10 -25.75998 28.18749 8198 ft 220 kts 270°
2026-04-24 17:11 -25.77150 28.13785 7993 ft 228 kts 238°
2026-04-24 17:12 -25.84388 28.11898 7995 ft 240 kts 169°